User: anonymous   Login
Location: Unspecified
(0.0000°N, 0.0000°E)
Time: 12:21:04
(UTC+00:00)
Language:

NOSS 3-1 (C) - Orbit

View from above orbital plane
View from above orbital plane
View from above satellite
View from above satellite

Ground track
Ground track

The orbit data is extracted from the following two-line orbital elements,

1 26907U 01040C   17142.93228822 0.00000020  00000-0  24126-4 0    04
2 26907  63.4128  93.3070 0368000 358.7343   1.2657 13.41268596    08
Epoch (UTC): 22 May 2017 22:22:29
Eccentricity: 0.0368000
inclination: 63.4128°
perigee height: 829 km
apogee height: 1380 km
right ascension of ascending node: 93.3070°
argument of perigee: 358.7343°
revolutions per day: 13.41268596
mean anomaly at epoch: 1.2657°
orbit number at epoch: 0

The dashed part of the orbit path shows where the satellite is in the earth's shadow,  

DLR